FREGAT DEB, 45641

Orbit data source: Space-Track

FREGAT DEB, 45641 is space debris in LEO originally from a launch on Mon, 18 Jul 2011 UTC launched from the Tyuratam Missile And Space Complex (TTMTR). Debris objects in space refer to the collection of defunct objects orbiting the Earth. Examples of debris include non-operational satellites, rocket bodies, and fragments generated from explosions, collisions, or faulty payload assembly.

Loading next visibility...
Identifier
45641, 2011-037AH
Orbit
LEO
Last TLE update
1 day ago
Origin
Manufacturer
Lavochkin
Mission
Spacecraft
Bus & Motor
Unknown
Mass
Unknown
Launch date (UTC)
2011-07-18 (14 years ago)
Launch vehicle
Unknown
Launch site
Tyuratam Missile And Space Complex (TTMTR)
Object type
Payload
Rocket body
Debris
Shape & HBR
Unknown
Radar Cross Section
Medium (>0.1 m² and <1 m²)

Expand to show TLE details & history

TLE from 1 day ago
0 FREGAT DEB
1 45641U 11037AH  25193.29377814  .00099275  00000-0  32035-2 0  9990
2 45641  51.6007 177.2761 0548987 208.2957 148.7134 14.49297825236916
Epoch: 2025-07-12T07:03Z
TLE epoch observation values (Epoch: 2025-07-12T07:03:02.431Z)
Latitude
-0.00008°
Longitude
141.08248°
Altitude
1,067.403 km
Speed
7.143 km/s
True Right ascension
11h 49m 06s
True Declination
0° 00' 00"
Sunlit
Object was in daylight at epoch
Visualization orbit readout
Latitude
-24.69806°
Longitude
-22.84555°
Altitude
344.73 km
Speed
7.91 km/s
Apparent Right ascension
01h 59m 42s
Apparent Declination
-79° 26' 28"
Sunlit
Object is in daylight
Visualization observer readout
Local Sidereal Time
00:36:17
Azimuth
175.682° S
Elevation
-29.964°
Doppler factor
1
Orbital elements
Apogee altitude
1,118.579 km
Perigee altitude
338.296 km
Semi-major axis
7,106.574 km
Eccentricity
0.0549
Inclination
51.6007°
RAAN
177.2761°
Arg. of periapsis
208.2957°
True anomaly
Unknown
Mean anomaly
148.7134°
Eccentric anomaly
Unknown
Mean motion
3.62287 °/min
Orbital period
99.37 mins
BSTAR
0.0032035
Loading maneuver chart data...
Loading SW <> Apogee altitude chart data...
Loading historical data...
Loading historical data...
Loading historical data...
Loading historical data...
Loading historical data...
Loading historical data...
Loading historical data...

FREGAT DEB Visibility forecast

Observer location: undefined°, undefined°

Span
Click to sort rows by Start time (UTC) header in descending order
Start Az.
Max El. time (UTC)
Max El. Az.
Max El.
End time (UTC)
End Az.
11 mins2025-07-14 00:34:15.132Z198.211° SSW2025-07-14 00:39:15.132Z134.371° SE36.67°2025-07-14 00:45:15.132Z64.004° ENE
12 mins2025-07-14 02:17:15.132Z253.073° W2025-07-14 02:23:15.132Z325.262° NNW40.481°2025-07-14 02:29:15.132Z47.314° ENE
9 mins2025-07-14 04:04:15.132Z299.703° NW2025-07-14 04:08:15.132Z346.918° N26.777°2025-07-14 04:13:15.132Z47.02° ENE
9 mins2025-07-14 05:49:15.132Z316.373° NNW2025-07-14 05:53:15.132Z1.879° NNE26.178°2025-07-14 05:58:15.132Z70.538° E
8 mins2025-07-14 07:34:15.132Z312.469° NW2025-07-14 07:38:15.132Z19.146° NNE42.804°2025-07-14 07:42:15.132Z115.331° SE
5 mins2025-07-14 09:19:15.132Z269.877° W2025-07-14 09:21:15.132Z239.429° WSW19.765°2025-07-14 09:24:15.132Z190.117° SSW
|